This is the latest recevied weather packets stored in our database for station/object DK4ARL. If no packets are shown the sender has not sent any weather packets the latest 10 day(s).
| Time | Temp. | Humidity | Pressure | Rain* | Wind** | Luminosity | Snow |
|---|---|---|---|---|---|---|---|
| 1777456129 | 21.67° C | - | 984.5 hPa | 0 mm | - | - | - |
| 1777455224 | 21.11° C | - | 984.5 hPa | 0 mm | - | - | - |
| 1777454320 | 20° C | - | 984.5 hPa | 0 mm | - | - | - |
| 1777453417 | 19.44° C | - | 984.6 hPa | 0 mm | - | - | - |
| 1777452516 | 19.44° C | - | 984.6 hPa | 0 mm | - | - | - |
| 1777451626 | 19.44° C | - | 984.6 hPa | 0 mm | - | - | - |
| 1777450727 | 18.33° C | - | 984.5 hPa | 0 mm | - | - | - |
| 1777449829 | 17.78° C | - | 984.5 hPa | 0 mm | - | - | - |
| 1777448933 | 17.22° C | - | 984.5 hPa | 0 mm | - | - | - |
| 1777448038 | 16.67° C | - | 984.4 hPa | 0 mm | - | - | - |
| 1777447146 | 16.11° C | - | 984.4 hPa | 0 mm | - | - | - |
| 1777446254 | 15° C | - | 984.3 hPa | 0 mm | - | - | - |
| 1777445365 | 16.11° C | - | 984.3 hPa | 0 mm | - | - | - |
| 1777444478 | 13.89° C | - | 984.2 hPa | 0 mm | - | - | - |
| 1777443593 | 12.78° C | - | 984.1 hPa | 0 mm | - | - | - |
| 1777441830 | 12.22° C | - | 983.9 hPa | 0 mm | - | - | - |
| 1777440952 | 11.67° C | - | 983.8 hPa | 0 mm | - | - | - |
| 1777440077 | 12.78° C | - | 983.6 hPa | 0 mm | - | - | - |
| 1777438333 | 7.78° C | - | 983.3 hPa | 0 mm | - | - | - |
| 1777437461 | 7.78° C | - | 983.2 hPa | 0 mm | - | - | - |
| 1777436589 | 8.33° C | - | 983.1 hPa | 0 mm | - | - | - |
| 1777435717 | 8.33° C | - | 983 hPa | 0 mm | - | - | - |
| 1777434844 | 8.33° C | - | 982.9 hPa | 0 mm | - | - | - |
| 1777433971 | 8.33° C | - | 982.8 hPa | 0 mm | - | - | - |
| 1777433107 | 8.89° C | - | 982.7 hPa | 0 mm | - | - | - |
* Rain latest hour (hover to see other rain measurements)
** Current wind speed in m/s (hover to see current wind gust speed)